Tracking 19242 objects as of 17-Aug-2018
HD Live streaming from Space Station
objects crossing your sky now

FENGYUN 1C DEB

Track FENGYUN 1C DEB now!
10-day predictions


NORAD ID: 30347
Int'l Code: 1999-025ABJ
Perigee: 820.1 km
Apogee: 1,040.1 km
Inclination: 98.4 °
Period: 103.5 minutes
Semi major axis: 7301 km
RCS: 0.028 m2 (small)
Launch date: May 10, 1999
Source: People's Republic of China (PRC)
Launch site: Taiyaun Space Center, China (TSC)

Note: This is SATELLITE DEBRIS
aabbcc
Your satellite tracking list
Your tracking list is empty




NASA's NSSDC Master Catalog

Two Line Element Set (TLE):
1 30347U 99025ABJ 18228.85510260  .00000017  00000-0  40454-4 0  9999
2 30347  98.3958 255.6940 0150706 250.9145 184.3930 13.91616014587670
Source of the keplerian elements: AFSPC